Theta_e
314 315 317 318 318 319 319 320 319 321 321 321 321 321 319 318 316 314 312 311 311 310
311 312 312 315 315 314 314 312 313 314 315 315 315 315 315 314 313 312 311 311 310 309
304 305 306 305 303 304 305 305 304 304 305 306 309 309 310 309 309 309 309 308 308 308
298 298 298 298 298 298 299 300 300 300 301 301 302 302 302 303 304 304 305 306 305 306
295 294 294 294 294 294 295 296 296 296 296 296 297 297 297 297 297 299 299 300 301 301
292 292 291 292 292 292 292 292 292 292 292 292 292 293 293 293 293 294 295 296 296 297
290 291 291 291 290 290 290 290 290 290 289 289 289 289 287 288 290 292 293 293 293 294
289 290 289 288 288 288 287 288 287 287 287 287 288 287 286 286 288 289 289 289 290 290
287 286 285 285 285 285 285 285 285 285 285 284 285 290 291 289 284 285 286 287 288 289
284 284 284 284 284 284 284 284 284 283 283 283 283 289 290 289 284 284 284 285 286 287
283 282 283 283 283 283 283 282 282 282 282 282 283 288 288 288 284 283 283 284 285 285
281 280 281 278 281 281 279 279 278 281 279 279 281 286 287 286 283 283 284 285 286 286
280 276 276 279 278 279 277 281 281 281 277 277 278 285 287 286 282 282 283 284 285 285
279 276 276 276 276 274 275 277 273 277 278 277 278 280 286 287 282 281 282 282 282 284
Wind_Speed
8 5 5 6 4 3 3 3 4 2 1 4 4 5 5 5 5 5 6 10 8 7
7 7 6 7 5 4 4 3 4 4 4 4 4 4 4 2 4 4 5 6 7 7
8 8 8 8 8 7 6 7 7 7 6 6 6 5 5 4 3 4 3 4 5 6
7 8 8 8 7 7 7 7 7 6 6 6 7 6 6 6 5 5 6 4 5 7
9 8 8 8 7 7 7 7 7 7 6 6 6 6 6 6 6 6 7 7 7 8
8 8 7 7 7 7 6 6 6 6 6 6 6 6 5 5 5 6 8 9 9 10
7 6 6 6 6 6 6 6 6 6 6 7 6 6 6 6 6 8 8 8 8 8
5 5 5 6 6 6 6 6 6 6 7 6 5 4 6 6 7 9 11 11 11 11
6 6 5 5 5 6 6 6 5 5 5 6 4 9 9 9 5 6 7 9 9 10
5 6 6 5 6 6 6 5 5 5 5 7 6 11 14 13 5 6 7 8 9 11
5 5 6 6 5 5 3 4 5 5 5 6 6 15 16 16 7 7 7 7 9 11
4 4 4 4 5 5 3 4 3 4 5 6 8 14 16 14 6 8 10 11 11 10
2 2 3 3 4 3 3 6 5 8 4 6 7 12 14 13 4 9 9 9 10 13
3 3 4 4 3 3 5 5 4 6 6 6 6 7 13 15 5 5 9 9 9 8
Wind_Direction
49 60 51 67 48 51 56 48 32 343 224 231 241 242 238 239 236 227 220 231 226 233
38 43 43 41 44 36 38 35 19 5 348 335 338 327 311 274 258 232 232 236 233 233
51 51 55 54 45 34 27 31 32 30 27 14 3 339 334 335 325 304 276 256 244 243
47 45 48 50 41 31 31 24 24 18 17 14 10 8 359 337 320 315 305 289 272 274
57 51 53 48 41 33 34 25 21 16 17 19 8 1 2 341 340 331 311 305 298 293
51 51 48 41 36 34 32 27 23 22 14 8 6 4 356 342 333 327 316 314 309 306
48 47 41 36 33 31 26 25 15 14 4 2 0 359 351 346 337 327 316 309 302 298
57 47 38 34 26 24 27 21 8 357 348 343 347 338 339 336 328 319 312 307 303 297
54 51 42 32 26 29 18 6 357 338 332 336 330 318 322 326 302 290 287 297 301 301
55 43 28 18 17 13 357 338 314 316 333 325 315 326 328 323 298 291 284 287 295 304
45 31 15 13 1 338 309 316 320 318 318 314 313 328 329 327 313 305 294 293 309 310
44 20 359 340 333 315 314 310 287 292 307 306 308 320 328 332 318 313 311 313 312 306
34 355 315 302 312 276 284 297 306 309 284 270 292 314 324 330 310 319 315 312 307 307
355 319 286 287 285 293 307 310 308 310 310 293 284 299 319 324 316 302 310 313 315 313